Wind_Speed
42 48 55 53 51 63 64 58 64 67 82 101 116 122 123 123 122 120 116 111 109 107 103 99 92 75 83 68 61 56 43 45 46 43 45 50 57 55 57 55 62 57 56
44 43 49 56 55 51 67 63 65 67 72 88 105 117 122 124 123 122 118 114 111 108 103 100 93 83 69 63 72 63 47 39 35 42 44 45 47 46 49 48 51 51 57
38 39 42 47 52 49 58 67 61 70 68 76 92 106 120 124 123 122 120 117 113 109 102 97 92 85 80 75 72 61 59 44 27 34 35 55 50 46 48 45 44 47 44
34 22 27 37 45 45 49 55 67 62 72 70 79 91 106 123 124 123 121 119 116 112 104 97 89 78 76 57 63 68 64 53 51 46 39 33 29 31 33 40 47 50 50
25 19 24 18 40 52 49 55 58 64 64 72 71 79 94 116 123 123 121 120 117 113 106 97 89 81 76 75 68 63 61 51 49 48 46 41 41 39 36 33 42 45 47
25 26 24 11 23 40 47 57 62 63 64 69 74 73 83 104 119 122 119 118 117 114 107 98 90 82 77 70 65 62 65 56 48 40 32 34 35 34 32 35 40 49 51
38 29 28 19 5 27 38 49 47 56 67 65 75 75 74 87 106 120 118 116 115 113 105 96 88 83 77 72 65 60 56 54 40 37 37 31 29 31 29 34 41 43 46
40 29 30 21 13 12 33 47 45 50 60 57 67 73 70 76 92 112 116 115 113 110 103 93 87 82 78 75 69 65 54 49 46 37 36 32 28 32 31 36 43 41 43
44 31 24 17 13 10 12 28 43 48 54 53 60 68 68 70 80 94 112 114 111 105 101 90 84 80 76 72 69 65 61 52 49 42 35 33 31 29 31 36 36 34 38
55 41 25 15 12 7 12 19 23 30 36 45 57 60 62 62 72 85 102 109 108 104 98 84 81 77 73 72 67 64 62 54 48 46 40 33 35 30 32 30 39 31 38
52 53 37 19 13 12 13 19 22 25 32 40 45 52 52 52 58 67 85 102 102 99 94 82 78 73 68 60 55 56 52 55 54 47 43 41 38 39 36 40 37 37 37
44 51 55 33 22 13 12 22 28 31 32 36 39 39 43 51 52 60 70 84 94 93 88 80 76 73 72 67 65 62 59 53 52 51 46 45 41 35 42 42 42 38 37
40 44 49 53 31 25 11 16 20 24 27 30 35 49 50 52 50 47 51 59 68 77 67 73 70 69 65 67 58 50 51 43 38 45 47 47 44 44 45 46 44 39 37
32 36 40 43 47 35 23 16 20 27 19 42 53 48 56 65 57 53 48 57 55 52 61 62 62 54 62 61 58 54 49 47 45 45 43 45 50 49 49 53 53 46 44
29 29 32 36 40 42 42 39 33 32 28 31 33 46 53 41 57 60 51 57 53 48 50 58 61 64 61 64 66 62 54 47 49 48 47 47 50 55 52 52 50 49 45
24 25 27 28 36 37 39 42 45 39 33 35 37 41 54 56 53 55 56 52 58 58 49 46 50 54 54 50 50 52 53 50 49 50 44 45 47 45 44 43 46 47 47
16 20 24 25 25 29 33 38 40 43 46 48 49 50 53 53 51 57 58 56 62 56 55 51 52 54 54 55 52 49 47 43 42 40 38 40 38 35 35 34 35 36 30
8 11 15 17 21 24 21 28 32 31 31 37 42 48 54 54 51 45 57 65 67 66 57 62 65 64 60 56 51 49 50 46 45 44 43 42 40 38 36 36 33 33 31
5 5 6 10 13 15 19 15 20 19 19 30 30 24 29 44 45 50 49 51 54 59 58 59 56 55 58 60 59 58 55 54 53 50 47 45 43 47 44 39 34 34 38
14 10 7 4 2 7 10 17 15 15 17 16 26 25 22 28 36 37 44 50 52 52 51 53 55 56 53 49 50 51 54 52 52 52 50 48 47 44 43 42 38 35 31
20 18 16 12 9 5 1 6 11 18 22 21 20 22 25 25 27 27 27 28 36 41 43 46 46 44 43 45 42 49 50 50 51 51 52 53 48 47 46 39 34 35 36
24 23 21 19 17 14 12 9 7 7 10 14 16 18 20 24 27 29 31 31 29 28 31 34 38 43 43 43 42 43 44 42 40 44 44 40 39 38 39 40 40 42 42
27 27 26 25 24 22 20 18 16 15 15 16 18 20 20 22 24 26 29 33 36 38 36 33 33 35 35 35 36 39 41 42 43 42 44 44 45 45 45 45 45 45 47
30 29 29 28 25 25 25 25 25 23 23 22 23 24 23 24 25 25 27 28 30 32 35 39 42 44 45 46 46 48 46 46 47 46 46 47 48 49 50 50 51 53 54
34 32 31 30 29 28 27 27 26 27 28 28 29 30 31 33 34 34 34 33 32 33 36 38 39 42 45 47 50 51 52 53 53 53 52 53 54 56 57 58 60 60 61
38 38 36 34 33 32 31 29 29 29 28 28 30 33 35 36 38 39 39 41 42 44 43 42 42 42 43 44 45 47 49 51 51 51 52 55 58 60 61 62 63 63 63
Wind_Direction
276 266 253 254 256 242 236 234 228 227 224 220 217 216 216 216 216 217 219 220 222 223 225 227 229 230 230 232 230 222 223 223 222 226 229 234 235 238 239 240 242 249 247
286 272 260 250 249 251 229 228 227 224 223 221 218 216 215 215 216 216 217 220 222 224 224 229 228 232 229 239 233 223 223 214 227 223 219 223 227 226 234 237 243 246 247
307 280 265 258 245 238 232 225 226 223 220 218 218 217 215 215 215 216 216 219 222 224 224 227 228 231 237 238 240 240 227 226 225 237 236 229 235 241 234 246 251 250 256
315 294 264 264 241 230 228 229 225 223 219 218 217 216 216 214 215 215 216 217 220 223 224 227 226 226 226 225 239 246 247 227 242 245 235 233 247 255 265 262 256 257 260
317 317 313 287 237 230 228 227 226 222 220 218 216 214 215 215 215 215 214 216 219 222 225 225 227 226 226 230 239 245 249 247 238 241 247 264 269 267 273 266 261 253 252
346 354 344 317 232 229 231 223 218 219 219 217 215 214 213 215 215 215 214 216 218 221 223 225 225 227 228 230 234 238 245 250 247 255 264 267 276 283 270 266 265 254 257
6 7 360 357 281 217 213 207 216 216 213 215 214 213 211 212 215 214 215 216 218 220 222 223 224 226 227 229 230 234 242 246 249 250 255 257 259 270 270 260 255 254 258
5 18 13 5 353 212 208 207 206 205 209 216 213 211 209 209 213 214 215 216 218 220 222 221 223 225 227 230 232 236 238 242 243 247 244 253 258 269 272 268 255 257 258
20 13 30 12 23 77 154 192 204 208 211 219 206 206 208 207 209 213 214 215 217 220 222 220 220 222 225 228 230 235 236 237 242 241 249 250 248 262 266 273 263 257 262
36 30 31 32 32 73 131 160 178 190 194 195 198 199 202 204 205 212 214 214 216 219 222 219 219 223 225 229 229 231 239 236 236 241 246 239 240 257 261 275 269 260 255
36 36 37 37 54 73 120 147 159 170 181 188 188 190 198 199 198 205 215 214 216 219 221 220 218 219 225 222 216 218 227 234 243 240 234 238 241 258 265 264 264 257 247
33 40 43 47 53 102 114 127 134 142 149 161 175 184 186 184 185 198 210 216 216 218 221 220 219 218 219 224 227 234 235 239 236 233 233 243 252 252 253 252 255 249 255
47 43 41 48 71 74 93 159 155 161 167 175 179 160 159 160 160 176 198 203 211 220 218 220 219 223 225 225 228 227 221 223 233 238 243 246 240 246 248 250 244 242 242
56 59 56 53 59 70 84 117 126 116 120 143 151 150 153 152 158 161 191 204 208 207 205 194 199 201 206 212 214 224 234 237 240 238 239 239 241 245 245 245 242 244 241
42 62 73 74 73 76 73 67 88 115 142 150 158 154 160 166 163 171 175 185 187 186 194 207 213 215 220 224 225 228 232 244 239 244 238 240 246 243 236 236 239 240 240
26 38 65 75 83 83 87 93 100 102 115 133 133 136 160 160 169 177 181 177 185 194 195 199 207 215 223 226 232 238 244 235 226 225 226 231 231 231 232 231 230 232 233
35 31 40 57 72 81 97 105 103 117 120 131 143 147 148 145 147 161 185 181 191 193 200 204 208 210 214 220 221 218 209 206 209 208 214 221 219 203 201 202 205 203 198
9 38 45 45 60 83 78 108 130 114 116 133 136 140 143 149 161 161 159 166 174 178 179 185 189 195 194 198 198 201 202 204 198 197 201 204 202 203 213 214 215 224 241
286 334 23 51 61 79 93 94 105 117 125 142 136 143 146 156 162 166 170 172 177 178 179 182 184 188 190 192 195 196 195 197 200 201 204 207 211 216 223 227 226 231 236
258 257 273 297 22 81 98 125 129 132 135 135 148 152 152 152 163 176 178 176 176 178 179 181 184 190 192 195 198 199 198 198 204 206 207 206 206 210 218 224 228 228 232
247 248 249 249 259 263 212 138 136 145 157 160 161 161 160 163 165 169 174 177 183 186 184 183 185 189 193 199 202 204 209 217 211 212 213 215 219 220 222 227 233 238 243
239 242 243 246 248 246 244 237 223 200 174 163 166 171 175 176 177 177 180 182 186 190 192 192 195 198 202 205 207 209 215 224 228 224 227 233 237 241 244 245 246 248 250
232 235 239 240 241 245 247 246 244 236 223 212 205 198 187 187 189 192 194 194 194 194 195 198 201 204 207 211 214 217 220 226 231 233 236 239 241 244 246 248 249 251 253
233 231 231 231 232 232 235 237 240 244 244 239 232 226 222 215 210 204 204 207 208 208 209 210 211 211 213 214 216 217 220 226 229 231 234 237 241 243 244 244 247 249 250
238 235 231 231 231 234 237 240 241 235 235 238 239 237 235 232 229 224 221 220 217 217 217 218 219 220 221 223 224 225 226 229 230 232 235 238 240 241 243 244 246 248 250
243 243 241 237 237 241 243 241 241 241 241 238 235 236 238 237 237 238 237 234 231 229 227 226 226 227 227 227 227 228 230 232 234 237 239 241 242 244 245 247 249 252 253
Height
5276 5272 5270 5271 5272 5274 5283 5292 5302 5312 5326 5341 5362 5383 5404 5424 5442 5461 5483 5499 5513 5529 5544 5561 5576 5585 5596 5606 5617 5627 5636 5643 5650 5654 5661 5667 5674 5680 5686 5690 5696 5700 5706
5256 5249 5245 5245 5248 5253 5261 5273 5280 5293 5304 5321 5339 5359 5379 5401 5422 5443 5464 5482 5498 5514 5533 5545 5564 5576 5585 5594 5605 5617 5626 5633 5639 5643 5651 5656 5663 5668 5675 5680 5685 5689 5694
5230 5222 5221 5223 5226 5233 5240 5251 5263 5275 5288 5302 5319 5339 5358 5379 5400 5424 5445 5464 5481 5499 5519 5534 5553 5568 5577 5590 5594 5602 5612 5622 5626 5635 5640 5647 5652 5656 5663 5668 5673 5678 5683
5218 5211 5208 5204 5206 5214 5224 5234 5247 5259 5272 5286 5302 5320 5337 5357 5378 5402 5425 5446 5464 5482 5502 5519 5539 5557 5571 5571 5580 5589 5595 5610 5620 5626 5630 5634 5641 5647 5652 5658 5663 5667 5672
5206 5200 5194 5186 5189 5197 5207 5218 5229 5242 5258 5272 5286 5302 5319 5339 5361 5384 5407 5429 5449 5468 5488 5507 5525 5543 5557 5569 5575 5582 5590 5598 5608 5615 5619 5625 5631 5636 5643 5648 5652 5655 5660
5198 5191 5184 5177 5176 5181 5188 5197 5212 5227 5241 5256 5272 5287 5304 5325 5348 5370 5393 5414 5434 5452 5474 5496 5515 5530 5544 5556 5566 5575 5582 5592 5599 5604 5612 5619 5622 5626 5632 5636 5641 5645 5651
5195 5187 5179 5171 5167 5169 5176 5186 5200 5211 5226 5242 5259 5276 5293 5314 5333 5359 5382 5402 5422 5441 5462 5485 5503 5519 5535 5545 5556 5566 5573 5585 5592 5597 5608 5612 5615 5617 5623 5627 5630 5635 5636
5197 5187 5178 5171 5166 5164 5169 5179 5191 5203 5219 5233 5247 5268 5285 5303 5323 5346 5369 5392 5411 5429 5450 5475 5493 5510 5524 5537 5548 5558 5568 5575 5584 5593 5599 5601 5605 5609 5613 5617 5620 5623 5627
5203 5190 5183 5178 5174 5169 5169 5176 5188 5200 5213 5226 5241 5259 5278 5295 5315 5333 5356 5379 5398 5419 5439 5464 5483 5498 5512 5528 5539 5549 5560 5567 5573 5580 5586 5591 5595 5601 5606 5610 5610 5614 5619
5214 5200 5190 5189 5186 5182 5182 5185 5192 5200 5209 5222 5237 5254 5273 5289 5307 5327 5346 5367 5390 5411 5431 5453 5474 5491 5504 5516 5527 5538 5548 5557 5563 5572 5579 5582 5587 5593 5597 5599 5603 5605 5610
5227 5213 5203 5198 5197 5195 5192 5193 5197 5204 5213 5225 5239 5257 5274 5289 5305 5323 5341 5364 5387 5406 5425 5447 5466 5483 5496 5505 5516 5527 5537 5542 5551 5559 5567 5572 5577 5582 5587 5591 5593 5596 5599
5241 5228 5218 5210 5206 5207 5208 5209 5211 5216 5223 5233 5245 5259 5272 5287 5303 5321 5343 5364 5384 5402 5420 5440 5459 5473 5484 5494 5506 5517 5523 5532 5540 5548 5555 5561 5567 5572 5577 5579 5583 5586 5590
5256 5244 5233 5227 5222 5218 5219 5219 5225 5229 5236 5244 5252 5262 5273 5288 5305 5325 5344 5365 5381 5398 5414 5433 5448 5463 5474 5486 5497 5506 5513 5522 5530 5539 5545 5550 5556 5560 5563 5568 5573 5574 5578
5270 5263 5254 5246 5240 5235 5234 5235 5236 5237 5244 5251 5260 5270 5282 5298 5312 5327 5346 5363 5379 5394 5409 5427 5440 5450 5463 5474 5483 5494 5502 5513 5519 5525 5531 5538 5543 5547 5551 5557 5560 5565 5569
5279 5275 5271 5265 5261 5255 5250 5245 5246 5248 5251 5261 5271 5282 5295 5308 5319 5334 5350 5365 5378 5392 5406 5419 5430 5442 5453 5464 5475 5483 5491 5499 5505 5511 5518 5524 5529 5534 5537 5541 5548 5554 5558
5288 5283 5281 5276 5274 5271 5269 5267 5267 5270 5272 5275 5283 5292 5302 5316 5326 5339 5352 5364 5378 5389 5400 5412 5423 5433 5443 5453 5463 5470 5478 5485 5491 5498 5505 5512 5516 5523 5527 5531 5536 5541 5546
5296 5291 5288 5286 5283 5281 5281 5282 5283 5285 5288 5293 5298 5304 5311 5317 5328 5338 5351 5362 5372 5385 5395 5407 5417 5428 5436 5445 5454 5462 5468 5475 5483 5487 5492 5501 5509 5513 5518 5523 5529 5532 5537
5302 5300 5297 5295 5292 5291 5288 5288 5290 5293 5297 5302 5307 5313 5316 5323 5332 5341 5346 5355 5365 5379 5389 5399 5409 5420 5427 5437 5446 5454 5460 5468 5476 5482 5488 5496 5502 5507 5513 5518 5523 5527 5533
5304 5303 5303 5302 5302 5301 5301 5298 5299 5300 5304 5308 5312 5317 5322 5327 5334 5342 5349 5358 5365 5372 5381 5392 5402 5409 5417 5426 5435 5443 5453 5459 5468 5474 5481 5488 5492 5496 5503 5508 5513 5518 5524
5303 5304 5304 5305 5307 5309 5310 5310 5310 5311 5312 5312 5317 5322 5327 5332 5337 5344 5351 5356 5363 5372 5379 5387 5396 5404 5413 5421 5428 5437 5445 5452 5460 5467 5473 5478 5483 5488 5493 5499 5505 5510 5514
5298 5301 5304 5306 5305 5308 5311 5314 5317 5320 5321 5322 5323 5327 5332 5337 5342 5346 5351 5356 5362 5370 5377 5385 5392 5399 5406 5413 5420 5430 5439 5446 5451 5457 5463 5469 5474 5480 5485 5491 5496 5499 5503
5291 5294 5298 5301 5304 5307 5310 5312 5315 5318 5322 5326 5330 5333 5336 5340 5345 5350 5355 5361 5366 5372 5378 5383 5390 5397 5404 5410 5417 5424 5431 5437 5444 5449 5454 5459 5465 5470 5475 5479 5484 5488 5492
5285 5288 5289 5293 5298 5301 5305 5309 5312 5316 5321 5324 5328 5333 5337 5341 5345 5350 5356 5361 5367 5372 5377 5384 5389 5396 5402 5408 5414 5420 5426 5432 5438 5442 5448 5452 5458 5462 5467 5470 5474 5477 5480
5276 5280 5283 5286 5288 5292 5296 5301 5306 5310 5313 5319 5324 5327 5331 5336 5341 5346 5351 5356 5361 5367 5372 5378 5384 5389 5395 5401 5407 5413 5418 5424 5430 5434 5439 5444 5449 5453 5457 5459 5462 5466 5468
5265 5270 5273 5276 5281 5285 5289 5292 5295 5300 5306 5310 5315 5321 5327 5332 5337 5342 5346 5350 5355 5360 5365 5370 5375 5380 5386 5393 5399 5404 5409 5414 5419 5423 5428 5432 5436 5439 5443 5446 5449 5451 5453
5248 5254 5260 5267 5270 5273 5276 5281 5286 5291 5294 5298 5304 5309 5314 5320 5325 5330 5336 5342 5348 5354 5359 5364 5368 5373 5378 5383 5388 5393 5399 5404 5408 5412 5415 5419 5423 5426 5428 5431 5434 5437 5438